Location: Black Creek
(40.9000°S, 175.5500°E)
Time: 21:12:53
(UTC+00:00)

Lacrosse 5 rocket - Visible Passes

Search period start: 02 November 2024 00:00
Search period end: 12 November 2024 00:00
Orbit: 430 x 558 km, 57.0° (Epoch: 01 November)

Date Brightness Start Highest point End Pass type
(mag) Time Alt. Az. Time Alt. Az. Time Alt. Az.
02 Nov 4.4 12:09:03 11° SSE 12:09:03 11° SSE 12:09:13 10° SSE visible
02 Nov 4.2 13:44:38 10° SSW 13:44:46 10° SSW 13:44:55 10° SSW visible
03 Nov 4.3 13:21:04 10° SSW 13:21:33 10° SSW 13:22:03 10° S visible
04 Nov 4.3 12:57:36 10° SSW 12:58:17 10° SSW 12:58:59 10° S visible
04 Nov 4.1 16:14:43 10° SSW 16:17:27 17° SSE 16:20:14 10° ESE visible
05 Nov 4.3 12:34:08 10° SSW 12:34:57 11° SSW 12:35:49 10° S visible
05 Nov 4.2 15:51:29 10° SSW 15:54:08 17° SSE 15:56:49 10° ESE visible
06 Nov 4.1 10:36:03 11° SSE 10:36:03 11° SSE 10:36:15 10° SSE visible
06 Nov 4.4 12:10:35 10° SSW 12:11:35 11° SSW 12:12:35 10° S visible
06 Nov 4.2 15:28:12 10° SSW 15:30:45 16° SSE 15:33:20 10° ESE visible
07 Nov 3.4 10:11:41 18° SSE 10:11:41 18° SSE 10:12:53 10° SSE visible
07 Nov 4.4 11:47:02 10° SW 11:48:09 11° SSW 11:49:17 10° S visible
07 Nov 4.3 15:04:53 10° SSW 15:07:19 15° SSE 15:09:48 10° ESE visible
08 Nov 2.4 08:05:52 10° NNE 08:08:15 17° ENE 08:10:42 10° E visible
08 Nov 2.0 09:42:23 10° WNW 09:45:50 45° SW 09:49:27 10° SE visible
08 Nov 4.5 11:23:25 10° SW 11:24:40 11° SSW 11:25:57 10° S visible
08 Nov 4.4 14:41:31 10° S 14:43:50 15° SSE 14:46:11 10° ESE visible
08 Nov 1.8 16:18:25 10° SW 16:22:26 67° SE 16:26:34 10° NE visible
09 Nov 2.5 07:42:35 10° NNE 07:44:48 16° ENE 07:47:05 10° E visible
09 Nov 1.9 09:18:54 10° WNW 09:22:21 48° SW 09:25:59 10° SE visible
09 Nov 4.5 10:59:46 10° SW 11:01:09 12° SSW 11:02:31 10° S visible
09 Nov 4.4 14:18:05 10° S 14:20:18 14° SSE 14:22:32 10° ESE visible
09 Nov 1.8 15:54:56 10° SW 15:58:56 63° SE 16:03:01 10° NE visible
10 Nov 1.8 08:55:21 10° WNW 08:58:49 51° SW 09:02:27 10° SE visible
10 Nov 4.5 10:36:05 10° SW 10:37:34 12° SSW 10:39:03 10° S visible
10 Nov 4.5 13:54:38 10° S 13:56:43 14° SSE 13:58:49 10° SE visible
10 Nov 1.9 15:31:24 10° SW 15:35:22 58° SE 15:39:26 10° ENE visible
11 Nov 1.7 08:31:45 10° WNW 08:35:14 55° SW 08:38:53 10° SE visible
11 Nov 4.5 10:12:21 10° SW 10:13:55 12° SSW 10:15:32 10° S visible
11 Nov 4.5 13:31:07 10° S 13:33:04 13° SSE 13:35:02 10° SE visible
11 Nov 2.0 15:07:49 10° SW 15:11:45 55° SE 15:15:47 10° ENE visible
